Weather History for Crestview, FL

Change the Weather History Date:

Tuesday, October 9, 2012

  Actual Average Record
Temperature  
Mean Temperature 64 °F -  
Max Temperature 79 °F - - ()
Min Temperature 51 °F - - ()
Growing Degree Days 14 (Base 50)    
Moisture  
Dew Point 54 °F    
Average Humidity 87    
Maximum Humidity 100    
Minimum Humidity 50    
Precipitation  
Precipitation 0.00 in - - ()
Sea Level Pressure  
Sea Level Pressure 30.09 in    
Wind  
Wind Speed 4 mph (North)    
Max Wind Speed 8 mph    
Max Gust Speed -    
Visibility 6 miles    
Events Fog    
T = Trace of Precipitation, MM = Missing Value Source: NWS Daily Summary

Daily Weather History Graph

Daily Weather History Graph

Search for Another Location

Airport:

Trip Planner

Search our weather history database for the weather conditions in past years. The results will help you decide how hot, cold, wet, or windy it might be!

Date:

Astronomy

Oct. 09, 2012 Rise Set
Actual Time 6:44 AM CDT 6:21 PM CDT
Civil Twilight 6:20 AM CDT 6:45 PM CDT
Nautical Twilight 5:52 AM CDT 7:13 PM CDT
Astronomical Twilight 5:24 AM CDT 7:40 PM CDT
Moon 12:44 AM CDT (10/9) 2:26 PM CDT (10/9)
Length of Visible Light 12h 24m
Length of Day
11h 36m
Last Quarter, 36% of the Moon is Illuminated
Oct 9
Last Quarter
Oct 15
New
Oct 21
First Quarter
Oct 29
Full
Nov 6
Last Quarter

Hourly Weather History & Observations

Time (CDT) Temp. Dew Point Humidity Pressure Visibility Wind Dir Wind Speed Gust Speed Precip Events Conditions
12:55 AM 55.8 °F 52.0 °F 87% 30.09 in 10.0 mi North 3.5 mph - N/A   Clear
1:55 AM 55.0 °F 51.3 °F 87% 30.08 in 10.0 mi North 5.8 mph - N/A   Clear
2:55 AM 54.3 °F 50.5 °F 87% 30.07 in 10.0 mi North 4.6 mph - N/A   Clear
3:55 AM 53.2 °F 50.2 °F 89% 30.07 in 10.0 mi North 4.6 mph - N/A   Clear
4:55 AM 52.5 °F 50.0 °F 91% 30.07 in 10.0 mi North 5.8 mph - N/A   Clear
5:38 AM 51.8 °F 50.0 °F 94% 30.08 in 10.0 mi North 3.5 mph - N/A   Partly Cloudy
5:44 AM 51.8 °F 50.0 °F 94% 30.08 in 10.0 mi North 3.5 mph - N/A   Scattered Clouds
5:47 AM 51.8 °F 50.0 °F 94% 30.08 in 10.0 mi North 4.6 mph - N/A   Mostly Cloudy
5:55 AM 52.0 °F 50.0 °F 93% 30.08 in 10.0 mi North 5.8 mph - N/A   Mostly Cloudy
6:20 AM 51.8 °F 50.0 °F 94% 30.09 in 8.0 mi North 4.6 mph - N/A   Overcast
6:28 AM 51.8 °F 51.8 °F 100% 30.09 in 2.5 mi North 4.6 mph - N/A   Overcast
6:29 AM 51.8 °F 51.8 °F 100% 30.09 in 2.0 mi North 4.6 mph - N/A   Overcast
6:31 AM 51.8 °F 51.8 °F 100% 30.09 in 1.8 mi North 4.6 mph - N/A   Overcast
6:34 AM 51.8 °F 51.8 °F 100% 30.09 in 1.2 mi North 5.8 mph - N/A   Overcast
6:35 AM 51.8 °F 51.8 °F 100% 30.09 in 1.0 mi North 4.6 mph - N/A   Mist
6:36 AM 51.8 °F 51.8 °F 100% 30.09 in 0.8 mi North 4.6 mph - N/A   Mist
6:38 AM 51.8 °F 51.8 °F 100% 30.09 in 0.5 mi North 5.8 mph - N/A Fog Fog
6:43 AM 51.8 °F 51.8 °F 100% 30.09 in 0.2 mi North 3.5 mph - N/A Fog Fog
6:55 AM 52.5 °F 51.4 °F 96% 30.09 in 0.2 mi North 3.5 mph - N/A Fog Fog
6:59 AM 51.8 °F 51.8 °F 100% 30.09 in 0.2 mi North 4.6 mph - N/A Fog Fog
7:39 AM 53.6 °F 53.6 °F 100% 30.11 in 0.5 mi NNE 4.6 mph - N/A Fog Fog
7:46 AM 53.6 °F 53.6 °F 100% 30.11 in 0.8 mi North 4.6 mph - N/A   Mist
7:48 AM 53.6 °F 53.6 °F 100% 30.11 in 0.8 mi NNE 4.6 mph - N/A   Mist
7:55 AM 54.1 °F 53.6 °F 98% 30.11 in 0.8 mi NNE 3.5 mph - N/A   Mist
8:08 AM 55.4 °F 53.6 °F 94% 30.12 in 0.8 mi NE 3.5 mph - N/A   Mist
8:12 AM 55.4 °F 55.4 °F 100% 30.12 in 0.8 mi Calm Calm - N/A   Mist
8:43 AM 57.2 °F 55.4 °F 94% 30.12 in 0.8 mi NE 4.6 mph - N/A   Mist
8:48 AM 57.2 °F 55.4 °F 94% 30.11 in 1.0 mi NNE 3.5 mph - N/A   Mist
8:55 AM 57.4 °F 56.3 °F 96% 30.13 in 1.5 mi North 3.5 mph - N/A   Overcast
9:01 AM 57.2 °F 55.4 °F 94% 30.11 in 2.0 mi NNE 3.5 mph - N/A   Overcast
9:10 AM 59.0 °F 55.4 °F 88% 30.11 in 4.0 mi NNE 4.6 mph - N/A   Overcast
9:30 AM 60.8 °F 57.2 °F 88% 30.12 in 10.0 mi Variable 3.5 mph - N/A   Mostly Cloudy
9:47 AM 62.6 °F 57.2 °F 82% 30.12 in 10.0 mi ENE 3.5 mph - N/A   Mostly Cloudy
9:55 AM 63.0 °F 57.0 °F 81% 30.14 in 10.0 mi NNE 3.5 mph - N/A   Scattered Clouds
10:08 AM 64.4 °F 57.2 °F 77% 30.12 in 10.0 mi North 4.6 mph - N/A   Partly Cloudy
10:56 AM 70.2 °F 58.5 °F 66% 30.13 in 10.0 mi NW 5.8 mph - N/A   Partly Cloudy
11:55 AM 73.4 °F 57.2 °F 57% 30.12 in 10.0 mi WNW 5.8 mph - N/A   Partly Cloudy
12:55 PM 75.4 °F 57.7 °F 54% 30.09 in 10.0 mi West 4.6 mph - N/A   Partly Cloudy
1:55 PM 77.0 °F 57.9 °F 52% 30.07 in 10.0 mi North 3.5 mph - N/A   Partly Cloudy
2:55 PM 78.1 °F 58.1 °F 50% 30.06 in 10.0 mi NW 8.1 mph - N/A   Partly Cloudy
3:55 PM 78.4 °F 58.1 °F 50% 30.05 in 10.0 mi NNW 2.3 mph - N/A   Partly Cloudy
4:55 PM 77.9 °F 57.7 °F 50% 30.04 in 10.0 mi North 4.6 mph - N/A   Partly Cloudy
5:55 PM 75.6 °F 57.9 °F 54% 30.04 in 10.0 mi North 4.6 mph - N/A   Partly Cloudy
6:55 PM 67.6 °F 59.2 °F 74% 30.05 in 10.0 mi North 2.3 mph - N/A   Clear
7:55 PM 62.4 °F 57.7 °F 85% 30.06 in 10.0 mi ESE 2.3 mph - N/A   Clear
8:55 PM 60.4 °F 57.0 °F 88% 30.07 in 10.0 mi Calm Calm - N/A   Clear
9:55 PM 58.5 °F 55.8 °F 91% 30.09 in 10.0 mi NNE 2.3 mph - N/A   Clear
10:55 PM 57.7 °F 55.4 °F 92% 30.09 in 10.0 mi NE 2.3 mph - N/A   Clear
11:55 PM 57.0 °F 54.3 °F 91% 30.09 in 10.0 mi Calm Calm - N/A   Clear